Wetbulb
54.00 51.87 49.50 51.67 54.35 54.63 55.05 53.29 51.78 53.47 57.64 53.84 53.96 55.21 56.97 58.22 58.79 58.07 58.14 57.82 57.58 58.08 59.42 59.35 59.79 60.78 59.68 59.83 59.80 61.09 60.04 58.15 58.73 59.72 59.62 58.41 54.20 55.19 56.24 56.68 57.11 56.73 56.39 57.21
51.31 48.76 55.78 56.86 55.98 55.33 53.15 50.31 50.48 53.71 55.80 52.72 55.24 54.81 56.32 57.06 57.06 58.42 58.49 57.97 58.00 58.55 59.12 59.50 60.22 60.61 60.08 60.02 61.01 61.91 61.29 59.84 60.26 61.14 60.49 60.53 59.14 57.01 56.92 56.54 55.90 56.76 57.06 56.31
48.90 50.67 57.86 56.84 54.23 53.19 51.04 50.30 49.78 50.57 53.48 54.98 55.65 52.29 52.19 55.78 58.21 60.03 59.75 60.25 59.18 58.45 57.09 59.16 60.44 60.81 60.88 60.73 61.04 61.83 60.47 61.72 60.72 59.92 60.14 59.52 60.09 58.11 56.09 54.57 54.69 56.39 57.52 57.22
50.00 52.15 52.68 53.10 53.12 53.61 48.16 54.10 53.49 52.02 48.46 42.83 52.41 44.55 48.26 52.80 55.04 55.85 57.42 57.38 57.37 56.38 57.95 57.65 58.16 59.27 60.08 60.98 61.33 60.82 60.40 59.45 59.47 59.87 58.92 57.88 57.78 53.33 54.04 54.80 54.73 55.95 57.80 58.11
47.94 49.39 50.24 51.98 53.89 54.67 51.14 55.67 53.87 53.05 49.56 46.20 48.72 44.40 48.70 51.52 50.81 53.47 54.56 56.34 56.69 55.30 56.25 57.22 57.94 58.48 58.73 60.01 59.80 60.64 58.84 56.99 57.56 59.10 55.64 57.26 56.60 54.55 54.59 54.38 54.18 54.44 55.66 56.71
49.55 53.16 55.13 54.82 56.43 55.34 55.76 53.53 51.54 51.55 45.65 39.15 46.34 46.34 43.44 48.51 51.74 52.44 53.68 53.31 53.76 54.17 55.33 58.07 58.36 59.48 58.60 59.26 59.60 60.12 57.13 57.14 59.52 56.62 56.93 56.24 56.58 56.67 54.68 54.02 53.69 53.90 54.20 54.58
48.95 50.01 55.02 58.08 53.87 55.96 54.40 47.04 39.34 36.77 36.68 37.38 48.73 45.05 45.82 53.29 53.94 53.72 52.58 51.17 52.25 53.29 53.03 53.23 53.16 53.84 54.02 54.74 57.41 56.81 55.90 56.32 57.12 55.33 56.53 55.29 58.00 57.65 56.46 56.26 54.87 54.28 53.00 52.08
45.44 46.00 54.10 56.84 53.87 51.75 50.79 45.43 38.27 32.41 34.80 37.91 48.86 41.28 44.48 52.45 54.48 54.33 52.89 51.65 52.69 52.33 52.42 52.49 52.28 53.11 52.29 52.30 52.38 53.62 53.20 53.02 56.06 55.21 56.65 57.30 56.10 56.14 56.90 57.14 55.74 54.33 53.32 52.82
47.94 48.51 57.25 57.35 58.02 54.63 50.00 44.00 46.22 40.77 41.24 36.19 41.98 45.71 50.70 53.70 52.80 53.07 51.90 51.81 51.09 51.43 51.98 51.54 51.62 50.33 50.72 49.64 50.13 50.98 50.75 50.51 51.24 55.44 55.49 54.91 55.38 54.45 56.08 55.96 55.82 53.77 54.81 56.54
51.74 47.14 55.35 57.01 57.67 55.88 52.52 50.89 40.64 41.86 34.26 32.34 41.47 43.40 41.45 46.80 48.33 51.84 51.30 50.69 50.06 50.00 48.79 46.60 47.20 48.03 48.92 49.23 49.80 50.67 50.64 49.73 52.28 55.35 54.10 54.20 52.86 54.77 54.41 55.60 55.68 54.34 53.74 54.48
52.91 50.24 51.41 52.55 50.68 47.78 46.94 43.72 44.85 43.41 41.28 35.24 34.27 38.98 48.47 48.11 50.48 48.33 48.49 49.52 48.85 48.74 45.62 46.44 47.20 48.27 48.67 48.81 49.37 50.23 49.96 49.62 49.81 50.88 51.17 53.46 53.46 53.87 53.70 53.31 54.51 54.59 54.10 53.53
53.26 49.20 44.94 47.83 52.64 54.18 49.62 46.15 45.28 38.95 38.03 39.95 38.87 38.55 50.70 50.51 51.10 49.25 49.23 49.45 48.39 47.75 46.06 46.96 47.57 48.07 47.92 47.77 48.66 48.70 49.59 49.20 49.12 49.43 49.29 50.17 52.98 52.97 52.36 53.20 53.56 53.53 53.34 53.31
52.18 46.94 40.88 41.88 47.64 52.62 49.43 48.83 46.52 45.08 43.21 38.72 37.24 40.17 50.92 51.27 49.47 49.43 47.49 47.60 48.67 45.67 46.54 47.19 47.46 47.69 48.27 48.24 48.54 48.84 49.58 48.73 49.24 49.73 48.91 48.41 50.04 51.96 52.55 53.10 53.99 54.69 53.87 53.12
56.85 48.94 44.76 39.40 43.75 47.08 47.31 49.68 48.51 43.75 37.66 39.15 41.48 43.86 46.73 48.63 48.89 48.92 48.13 47.22 44.55 45.60 48.21 47.62 46.66 47.01 47.95 49.39 49.43 49.83 49.76 50.17 49.99 50.04 49.34 49.34 49.47 51.89 52.69 53.12 54.53 54.19 52.76 50.82
52.20 45.51 48.81 49.11 51.17 50.11 48.02 47.66 47.29 43.99 42.31 39.07 43.00 45.15 46.76 48.30 49.91 46.93 46.77 46.03 46.27 46.80 47.31 46.69 46.97 47.69 48.16 49.50 49.66 50.63 50.86 50.54 49.95 49.63 49.16 49.48 50.98 52.18 53.03 53.50 54.59 54.53 53.90 53.23
52.21 46.28 49.68 47.65 51.70 50.63 47.53 48.73 48.21 47.10 47.23 46.26 46.88 45.00 49.91 48.73 48.84 47.28 46.38 46.28 46.10 46.68 48.06 48.76 49.44 49.72 49.56 50.49 50.66 52.10 52.25 51.03 50.72 50.07 49.89 50.64 50.93 52.82 51.73 52.30 52.96 54.30 53.61 53.25
50.10 48.29 45.55 42.12 50.45 50.32 44.58 47.94 48.91 47.91 47.07 46.51 41.40 45.54 47.82 46.49 46.01 43.82 44.68 46.64 47.31 48.02 49.03 48.86 48.73 48.75 49.25 49.26 50.28 50.21 49.49 49.84 49.63 49.25 49.86 52.22 50.56 50.66 51.14 51.96 51.98 53.84 53.14 53.31
50.53 50.58 46.87 42.77 46.31 37.27 48.31 52.53 52.53 49.85 48.99 48.40 48.84 47.97 47.94 46.37 44.91 44.87 47.47 47.50 48.43 49.15 48.69 48.15 47.64 47.77 48.68 48.90 48.85 48.46 48.91 49.27 48.77 48.93 49.62 50.18 49.72 49.92 51.05 50.74 50.72 51.36 52.37 52.64
54.36 50.19 44.80 41.38 40.94 46.27 50.61 51.21 48.70 47.38 46.18 50.87 48.44 48.70 47.61 46.72 46.65 46.74 49.94 50.26 48.69 48.01 48.26 48.16 48.05 48.32 47.76 47.69 48.15 47.37 47.35 47.27 46.79 45.93 46.51 47.70 48.37 48.97 49.81 49.96 50.96 51.55 51.85 52.52
54.84 52.78 46.12 43.63 40.61 38.54 49.00 53.72 55.25 52.05 40.40 50.75 48.94 45.84 44.98 44.72 39.01 42.24 48.82 49.79 49.04 49.18 49.17 48.28 48.01 48.41 47.09 47.18 47.24 45.98 45.40 45.14 45.26 46.35 46.78 47.90 49.02 48.22 48.33 49.66 50.19 51.60 52.75 52.22
48.49 48.74 44.43 41.91 42.52 45.70 52.90 55.42 54.04 39.43 41.52 48.67 46.95 45.33 45.68 43.43 44.60 47.42 49.23 48.89 49.50 49.02 48.23 47.69 48.10 46.24 48.23 48.85 46.97 45.09 44.99 43.90 46.04 47.37 47.34 47.92 47.96 47.39 47.73 48.80 50.19 50.88 52.11 52.67
47.46 44.36 41.67 45.33 42.72 39.83 54.29 52.95 46.74 47.99 47.05 46.65 46.23 47.60 46.33 46.90 48.76 48.13 48.15 48.57 48.98 47.42 47.32 48.16 47.10 45.57 46.37 46.14 44.92 43.84 43.22 45.15 47.13 46.42 46.97 47.23 48.11 47.77 48.76 47.41 49.51 50.03 50.82 51.11
47.10 48.24 43.60 46.70 46.19 51.22 52.76 50.18 49.19 48.39 46.51 46.57 47.65 46.90 48.51 47.62 46.80 46.80 46.92 48.17 47.49 46.91 47.17 47.67 46.58 45.18 45.27 45.05 44.32 42.52 43.69 45.51 45.82 45.08 45.11 45.56 46.85 45.89 45.83 45.50 47.29 48.01 50.28 49.51
53.42 55.35 49.51 49.30 50.81 50.18 50.29 50.65 49.46 49.37 48.41 48.89 48.09 49.52 49.16 47.35 46.81 46.22 47.80 47.40 46.34 47.04 46.76 46.98 45.56 44.10 46.16 44.55 44.81 43.31 44.79 47.28 45.38 44.23 44.50 44.08 42.70 45.72 45.11 47.15 46.92 47.28 49.51 47.20
50.83 51.61 48.91 49.80 50.26 51.36 51.06 51.07 50.13 49.62 50.18 49.41 50.57 49.37 47.75 46.62 46.45 46.72 47.88 47.25 46.77 46.66 47.02 46.42 44.57 44.40 43.84 47.40 45.97 44.65 46.75 45.60 44.47 44.66 44.66 42.47 42.43 41.78 44.22 46.60 48.28 47.40 48.57 45.45
52.81 50.42 45.84 45.27 50.15 50.21 49.24 51.01 52.03 49.79 50.16 49.78 49.19 48.04 48.11 46.98 45.64 48.18 47.54 47.34 46.31 45.78 47.23 46.25 45.29 46.58 46.94 46.92 46.87 46.85 47.47 45.85 44.28 43.83 44.20 42.72 40.54 41.38 43.48 45.31 46.10 44.89 44.40 42.60
MSLP
1006.36 1007.70 1007.95 1007.91 1008.14 1008.10 1009.71 1011.29 1012.37 1012.08 1010.89 1011.09 1012.08 1014.13 1015.59 1016.00 1015.98 1016.34 1017.30 1017.72 1018.10 1018.67 1018.44 1018.98 1019.08 1019.58 1019.85 1020.07 1020.18 1020.21 1020.26 1020.46 1021.03 1021.07 1021.21 1021.53 1020.99 1020.01 1020.03 1019.85 1019.70 1019.80 1019.86 1019.77
1006.52 1006.69 1006.58 1006.56 1007.01 1007.74 1008.37 1008.81 1009.17 1009.76 1009.82 1010.65 1012.34 1014.88 1016.24 1016.47 1016.43 1016.53 1016.48 1017.06 1017.33 1017.71 1017.92 1018.52 1018.85 1019.02 1019.32 1019.49 1019.30 1020.17 1020.30 1020.44 1020.29 1020.70 1020.87 1021.22 1020.16 1019.71 1019.62 1019.79 1019.65 1019.62 1019.46 1019.61
1006.47 1005.50 1005.39 1005.92 1006.21 1006.67 1007.20 1007.70 1008.13 1008.77 1008.95 1009.88 1012.24 1015.91 1017.72 1017.16 1016.40 1016.08 1015.66 1015.89 1016.70 1016.93 1017.26 1017.91 1018.33 1018.75 1018.56 1018.74 1019.17 1019.67 1020.07 1019.90 1020.24 1020.47 1020.42 1019.80 1019.85 1019.63 1019.66 1019.36 1019.49 1019.45 1019.35 1019.16
1006.20 1004.97 1004.73 1005.07 1005.82 1006.50 1006.89 1007.10 1007.59 1008.07 1008.90 1009.96 1010.79 1015.30 1016.46 1017.85 1017.01 1016.00 1015.87 1015.82 1016.60 1016.90 1017.11 1017.94 1018.21 1018.49 1018.44 1018.47 1018.77 1019.24 1019.39 1019.67 1020.15 1020.01 1019.82 1019.85 1020.43 1020.07 1019.54 1019.53 1019.37 1019.46 1019.19 1018.96
1005.79 1005.30 1004.93 1005.05 1005.96 1006.43 1007.16 1007.88 1008.36 1008.31 1008.86 1009.79 1012.09 1014.33 1017.22 1017.69 1017.43 1016.66 1016.31 1015.94 1016.19 1017.03 1017.60 1017.97 1018.04 1018.01 1018.23 1018.46 1018.54 1018.89 1019.27 1019.79 1019.60 1019.48 1019.85 1020.18 1020.18 1019.75 1019.28 1019.28 1019.14 1018.94 1018.65 1018.44
1005.42 1004.75 1005.03 1005.32 1005.71 1006.15 1006.46 1008.11 1009.50 1009.16 1009.19 1010.51 1011.96 1013.83 1017.56 1017.46 1017.39 1016.62 1016.54 1016.24 1016.67 1017.26 1017.37 1017.70 1017.62 1017.88 1018.21 1018.26 1018.71 1018.84 1019.28 1019.42 1019.39 1019.71 1019.52 1019.74 1019.89 1019.61 1019.90 1019.60 1019.41 1018.92 1018.66 1018.52
1005.56 1005.25 1004.74 1004.90 1005.67 1006.11 1006.87 1008.81 1009.80 1010.16 1010.85 1012.14 1013.10 1014.65 1016.53 1016.66 1016.75 1016.64 1016.76 1016.76 1016.93 1017.16 1017.73 1018.05 1017.99 1018.03 1018.36 1018.43 1018.45 1018.85 1019.41 1019.23 1019.46 1019.67 1019.63 1019.64 1019.51 1019.39 1019.88 1019.72 1019.33 1018.95 1018.83 1018.61
1006.21 1005.71 1005.13 1005.09 1005.85 1006.84 1007.28 1008.37 1009.86 1010.97 1011.92 1012.94 1013.22 1015.46 1016.69 1016.69 1016.35 1016.20 1015.99 1016.65 1017.03 1017.31 1017.54 1017.67 1017.61 1017.70 1017.84 1017.94 1018.28 1018.54 1018.77 1018.78 1018.95 1019.09 1019.28 1019.38 1019.17 1019.00 1018.70 1018.97 1018.85 1018.60 1018.50 1018.12
1006.69 1006.34 1005.70 1005.57 1005.53 1006.24 1007.02 1008.20 1009.03 1010.44 1011.26 1012.61 1014.78 1016.44 1016.74 1016.39 1016.30 1015.94 1016.58 1016.75 1017.12 1017.23 1017.26 1017.37 1017.43 1017.80 1017.97 1018.05 1018.19 1018.22 1018.39 1018.49 1018.51 1018.80 1018.92 1019.01 1018.88 1018.81 1018.63 1018.48 1018.43 1018.21 1017.97 1017.58
1007.48 1007.13 1006.27 1005.94 1005.79 1006.17 1006.88 1007.75 1008.96 1010.65 1012.46 1013.74 1014.48 1015.67 1016.13 1016.32 1016.21 1016.06 1016.48 1016.89 1017.10 1017.18 1017.43 1017.69 1017.66 1017.67 1017.77 1017.69 1017.86 1018.18 1018.24 1018.36 1018.65 1018.70 1018.64 1018.66 1018.54 1018.41 1018.15 1018.03 1017.91 1017.83 1017.45 1017.14
1008.21 1008.15 1007.53 1006.78 1006.77 1007.00 1007.25 1008.18 1009.34 1010.97 1012.34 1013.87 1014.93 1015.66 1015.31 1015.86 1016.35 1016.64 1016.82 1016.91 1016.99 1017.31 1017.35 1017.51 1017.60 1017.70 1017.76 1017.76 1017.95 1018.13 1018.19 1018.39 1018.65 1018.54 1018.48 1018.40 1018.24 1018.02 1018.04 1017.78 1017.29 1017.03 1016.86 1016.80
1009.24 1009.09 1008.75 1008.21 1007.53 1007.26 1007.64 1008.49 1009.73 1011.61 1012.85 1013.77 1014.36 1016.03 1015.60 1016.00 1016.43 1016.83 1016.81 1016.92 1016.87 1017.01 1017.09 1017.25 1017.39 1017.56 1017.62 1017.53 1017.61 1017.81 1017.98 1018.12 1018.20 1018.12 1018.19 1018.12 1017.97 1017.55 1017.53 1017.19 1016.83 1016.50 1016.35 1016.28
1009.94 1009.86 1009.78 1008.99 1008.45 1007.97 1008.07 1008.63 1009.41 1010.99 1012.18 1013.38 1014.21 1015.69 1015.70 1015.86 1016.26 1016.43 1016.65 1016.83 1016.90 1016.80 1017.01 1017.17 1017.27 1017.33 1017.32 1017.37 1017.50 1017.59 1017.77 1017.79 1017.76 1017.73 1017.85 1017.96 1017.61 1017.31 1017.02 1016.57 1016.19 1015.78 1015.56 1015.75
1010.25 1010.40 1010.39 1009.97 1009.17 1008.59 1008.64 1008.63 1009.26 1010.53 1012.03 1012.92 1013.73 1014.98 1015.76 1016.08 1016.25 1016.33 1016.59 1016.59 1016.63 1016.74 1017.11 1017.37 1017.42 1017.30 1017.48 1017.63 1017.60 1017.73 1017.83 1017.70 1017.63 1017.53 1017.46 1017.45 1017.37 1017.02 1016.65 1016.20 1015.70 1015.37 1015.37 1015.35
1010.50 1010.75 1010.44 1009.91 1009.38 1008.86 1009.08 1009.22 1009.60 1010.50 1011.33 1012.40 1013.50 1014.33 1015.15 1015.46 1015.58 1015.98 1016.27 1016.32 1016.59 1016.98 1017.20 1017.35 1017.59 1017.71 1017.83 1018.04 1018.05 1017.97 1017.98 1017.96 1017.71 1017.62 1017.49 1017.31 1016.98 1016.64 1016.27 1015.85 1015.37 1015.05 1015.04 1015.19
1010.33 1010.93 1011.00 1010.82 1010.01 1009.32 1009.52 1009.76 1009.62 1010.16 1010.74 1011.73 1012.80 1014.02 1014.49 1015.19 1015.40 1015.85 1016.08 1016.32 1016.75 1017.08 1017.30 1017.74 1017.97 1018.15 1018.30 1018.44 1018.28 1018.15 1018.27 1018.21 1018.05 1017.90 1017.53 1017.04 1016.81 1016.51 1016.24 1015.68 1015.21 1014.98 1014.80 1014.92
1010.53 1011.27 1011.98 1011.81 1010.92 1010.50 1010.62 1011.10 1009.92 1010.25 1010.82 1011.69 1012.67 1013.38 1014.02 1015.00 1015.32 1015.54 1015.90 1016.34 1016.84 1017.33 1017.93 1018.18 1018.44 1018.61 1018.70 1018.74 1018.73 1018.86 1018.66 1018.51 1018.35 1018.05 1017.58 1016.98 1016.78 1016.54 1016.13 1015.66 1015.30 1014.97 1014.75 1014.58
1010.88 1011.73 1012.32 1012.64 1012.13 1012.01 1011.41 1011.59 1011.40 1012.16 1012.61 1012.25 1012.69 1013.36 1014.00 1014.74 1015.17 1015.56 1015.95 1016.53 1017.21 1017.70 1018.22 1018.46 1018.56 1018.75 1019.11 1019.14 1019.09 1019.01 1018.88 1018.81 1018.60 1018.29 1017.79 1017.20 1016.84 1016.38 1016.09 1015.67 1015.36 1015.11 1014.94 1014.75
1011.04 1012.09 1013.13 1013.69 1013.55 1012.86 1012.57 1013.06 1013.47 1013.76 1013.68 1013.54 1013.74 1013.92 1014.36 1014.83 1015.56 1016.47 1016.42 1016.94 1017.51 1018.00 1018.31 1018.57 1018.64 1019.03 1019.32 1019.48 1019.39 1019.27 1019.20 1019.07 1018.85 1018.44 1018.00 1017.60 1017.11 1016.55 1016.12 1015.67 1015.26 1014.74 1014.70 1014.61
1011.82 1012.58 1014.02 1014.84 1014.76 1014.27 1013.98 1013.41 1013.25 1013.00 1013.92 1014.22 1014.45 1014.73 1015.02 1015.43 1016.59 1017.14 1017.04 1017.35 1017.82 1018.04 1018.41 1018.68 1018.87 1019.39 1019.39 1019.53 1019.55 1019.64 1019.64 1019.45 1019.10 1018.60 1018.08 1017.50 1017.06 1016.60 1016.13 1015.73 1015.25 1014.67 1014.20 1014.17
1012.31 1013.68 1014.74 1015.81 1015.67 1014.79 1013.50 1013.26 1012.85 1013.88 1015.11 1014.66 1014.87 1015.26 1015.80 1016.50 1016.94 1017.30 1017.44 1017.76 1018.01 1018.33 1018.55 1018.60 1019.15 1019.63 1019.68 1019.89 1019.90 1019.93 1019.82 1019.66 1019.15 1018.60 1018.09 1017.54 1017.05 1016.58 1015.99 1015.53 1015.10 1014.56 1014.04 1013.93
1012.42 1013.93 1015.31 1015.77 1015.17 1014.35 1013.19 1013.31 1013.96 1014.63 1014.53 1014.93 1015.30 1015.82 1016.31 1016.73 1017.06 1017.45 1017.74 1018.00 1018.18 1018.47 1018.61 1018.81 1019.64 1019.89 1019.92 1020.02 1020.02 1020.11 1020.08 1019.65 1019.00 1018.59 1018.12 1017.69 1016.99 1016.54 1015.86 1015.57 1015.14 1014.74 1014.32 1014.20
1012.65 1013.34 1014.16 1014.79 1014.28 1014.00 1013.75 1014.20 1014.27 1014.40 1014.85 1015.26 1015.73 1016.06 1016.47 1017.16 1017.53 1017.71 1018.02 1018.24 1018.53 1018.73 1019.02 1019.39 1019.74 1019.98 1019.95 1019.98 1020.03 1020.16 1019.92 1019.41 1018.99 1018.74 1018.35 1017.88 1017.17 1016.67 1016.07 1015.76 1015.22 1015.01 1014.64 1014.44
1012.60 1013.03 1013.77 1013.79 1014.06 1014.14 1014.26 1014.33 1014.40 1014.63 1015.04 1015.33 1015.64 1016.21 1016.64 1017.31 1017.63 1017.92 1018.26 1018.60 1018.76 1018.92 1019.19 1019.45 1019.80 1020.08 1019.94 1019.83 1019.66 1019.62 1019.49 1019.08 1018.99 1018.83 1018.42 1017.93 1017.41 1016.80 1016.25 1015.67 1015.37 1015.06 1014.90 1014.86
1013.32 1013.57 1013.76 1014.09 1014.06 1013.85 1014.04 1014.11 1014.40 1014.69 1015.07 1015.51 1016.12 1016.68 1017.17 1017.44 1017.85 1018.12 1018.46 1018.74 1018.89 1019.01 1019.10 1019.35 1019.71 1019.67 1019.46 1019.27 1019.23 1019.05 1018.87 1018.80 1018.87 1018.73 1018.43 1018.06 1017.60 1017.06 1016.52 1015.96 1015.55 1015.24 1015.07 1015.23
1013.42 1013.86 1014.18 1014.39 1014.18 1014.10 1014.32 1014.13 1014.31 1014.82 1015.51 1015.94 1016.45 1016.97 1017.33 1017.63 1017.96 1018.08 1018.42 1018.61 1018.76 1018.82 1018.87 1019.09 1019.18 1019.02 1018.92 1018.80 1018.79 1018.73 1018.64 1018.62 1018.69 1018.57 1018.27 1017.96 1017.65 1017.17 1016.68 1016.23 1015.76 1015.36 1015.34 1015.35
Wind_Speed
8 4 7 13 14 8 8 21 13 21 16 5 13 15 11 7 8 9 8 9 12 13 17 14 14 12 11 8 8 7 7 1 2 2 3 5 5 2 1 2 4 4 2 3
8 9 15 17 8 10 9 3 4 6 8 5 14 15 9 6 4 9 12 8 10 13 13 13 13 12 9 7 8 1 4 3 5 3 4 4 7 4 3 3 3 5 5 5
9 11 14 16 6 4 3 1 4 8 5 5 20 8 3 4 2 15 10 12 10 10 8 11 10 8 8 7 6 8 7 5 4 4 4 5 6 3 2 3 3 4 6 6
11 10 9 9 10 8 4 6 9 12 6 6 7 5 6 7 2 4 3 6 4 6 3 7 6 6 7 8 4 6 9 5 4 7 8 6 9 4 3 3 2 2 3 5
11 10 12 4 8 13 4 20 18 12 11 4 2 8 3 6 4 2 5 6 6 6 8 7 7 8 3 5 4 5 6 5 6 8 3 4 7 5 2 2 3 2 4 6
10 12 4 3 4 10 11 8 15 22 4 4 4 7 3 3 2 6 3 8 10 7 6 8 6 5 6 6 4 6 6 5 5 6 8 8 11 7 5 5 4 4 4 5
9 15 4 6 4 9 6 2 5 7 6 3 6 11 4 8 8 7 9 8 7 7 8 7 6 6 6 6 5 7 6 5 6 7 8 7 5 4 3 11 5 6 4 3
3 8 1 2 3 6 7 3 2 4 3 5 6 6 4 6 10 11 9 9 7 8 6 5 4 3 5 5 7 6 5 4 6 9 5 2 5 4 6 7 5 5 3 4
3 6 1 5 4 2 5 2 5 2 6 4 6 4 3 6 8 7 10 8 7 5 6 5 3 6 7 5 5 6 5 3 5 6 4 5 6 6 7 6 4 5 5 3
4 6 8 2 6 8 8 4 3 5 4 4 4 7 6 5 6 8 7 7 6 4 7 6 5 4 3 3 3 6 5 3 4 5 2 0 1 5 6 6 7 7 6 4
5 3 6 8 3 3 6 3 4 3 2 1 2 3 6 7 5 10 7 6 5 6 5 6 4 5 5 6 7 5 5 7 6 2 2 1 3 3 6 6 7 7 6 6
5 2 3 6 4 5 1 2 5 5 6 2 4 2 8 8 10 7 7 3 1 2 5 4 3 3 4 4 4 4 5 5 2 3 3 4 4 4 5 6 7 7 8 6
3 3 4 9 3 3 2 3 4 3 2 4 1 4 6 7 6 5 3 2 2 2 5 2 3 3 2 3 3 3 3 1 3 3 4 5 6 4 6 6 8 7 6 5
1 2 5 6 7 1 2 6 5 7 3 3 2 6 6 7 8 8 7 5 4 2 4 4 4 5 5 4 3 3 5 5 4 5 5 5 6 7 6 7 8 5 5 4
3 1 4 7 11 1 6 6 4 6 3 4 4 9 8 8 6 8 7 5 3 6 6 6 5 4 5 7 6 6 5 6 5 7 7 7 7 7 7 7 6 5 5 3
2 2 5 7 12 9 4 5 3 4 7 4 12 8 7 6 8 7 5 5 6 6 6 7 8 8 7 4 3 5 6 6 7 7 7 6 6 7 7 7 6 5 4 4
3 1 4 5 7 8 4 4 14 3 7 4 3 7 8 6 6 4 2 7 5 7 8 7 7 6 5 6 7 7 7 6 7 6 7 7 5 6 6 7 6 6 5 5
2 1 1 5 5 4 3 3 8 8 12 6 7 8 9 8 4 4 7 7 9 8 7 6 6 6 7 6 7 6 7 6 6 9 10 9 6 6 7 7 6 4 3 6
1 2 2 3 2 6 7 5 7 8 4 10 8 7 8 7 9 7 7 10 8 8 6 5 5 6 7 7 6 6 6 7 6 8 7 10 12 7 7 6 8 5 2 3
9 7 6 3 1 2 3 2 8 6 2 6 8 7 8 7 5 2 7 8 8 8 6 6 5 6 7 5 6 7 6 6 7 10 9 8 7 8 7 6 7 6 4 4
0 2 5 1 1 6 5 10 2 1 4 5 5 5 7 5 5 3 7 7 6 6 7 5 9 6 5 6 6 4 6 7 7 7 8 8 10 7 6 6 4 7 4 6
4 4 2 2 7 1 4 5 2 5 2 4 5 6 7 5 9 8 7 7 8 8 8 7 7 5 5 3 6 6 6 6 8 7 8 8 10 7 7 7 5 7 4 4
4 6 6 7 4 4 6 7 4 3 3 5 7 4 8 8 7 7 6 7 7 7 6 6 6 6 3 4 6 5 6 6 7 7 7 7 10 6 6 6 6 4 7 4
1 4 3 3 3 7 7 6 5 5 6 6 4 9 7 6 7 6 5 6 6 5 4 5 7 4 5 4 3 3 6 6 6 7 8 6 6 9 9 8 4 3 4 4
2 5 2 4 3 2 6 6 7 6 6 2 10 9 8 8 6 6 5 5 5 4 2 6 4 1 2 1 2 3 4 5 5 6 6 6 5 5 7 7 5 4 3 2
3 3 3 1 4 4 2 5 8 7 9 9 9 8 7 7 6 5 4 5 2 2 2 4 4 4 2 3 3 4 4 4 4 5 5 4 4 5 4 6 7 3 5 1
Wind_Direction
266 119 208 230 216 235 26 158 195 226 246 217 181 126 152 117 150 179 182 192 194 210 218 213 209 213 216 220 227 227 207 149 353 327 343 355 279 284 296 163 158 173 230 278
315 220 207 228 258 204 161 193 240 226 242 151 115 132 89 123 234 204 196 207 212 223 215 210 215 207 208 197 202 115 35 192 217 216 98 242 270 253 242 228 218 196 202 242
274 269 182 221 158 76 242 215 274 220 215 162 114 98 75 240 227 264 187 180 210 218 173 192 187 188 209 212 212 180 205 226 207 126 230 259 291 282 324 239 260 247 222 220
279 290 318 335 24 12 356 357 343 321 309 243 162 137 111 289 245 55 111 160 186 126 114 112 130 203 203 222 236 160 194 205 190 185 227 217 264 255 232 227 216 259 285 262
279 305 314 305 48 19 317 9 336 294 294 252 53 92 135 191 208 195 94 145 147 105 131 139 164 201 175 118 166 148 157 204 203 208 257 251 267 245 233 288 270 291 274 278
283 293 77 134 43 16 340 37 288 286 299 12 157 109 191 171 180 153 58 78 99 146 112 161 192 157 182 170 124 170 191 236 201 215 229 235 260 284 325 308 295 304 294 287
286 273 256 92 344 337 334 174 300 347 359 272 132 65 204 184 141 140 209 125 139 86 86 72 50 92 95 88 143 166 183 215 218 215 243 243 234 230 302 279 271 260 266 257
281 325 360 11 241 237 277 123 177 307 312 258 102 120 200 173 178 216 147 122 102 90 94 110 121 119 96 42 36 71 104 54 186 220 256 149 169 215 222 242 265 251 223 224
5 324 48 211 224 208 286 321 241 244 267 341 109 44 341 227 219 185 115 104 111 132 169 171 29 54 79 89 112 115 94 48 15 129 181 199 229 233 240 260 267 256 259 248
298 316 301 208 229 249 211 229 357 348 3 320 103 165 190 186 222 122 111 101 73 18 66 66 75 78 93 64 66 63 63 30 81 121 168 148 339 249 240 251 252 245 247 258
7 41 309 5 319 76 13 356 30 114 126 232 22 318 190 180 115 90 71 52 48 1 80 55 45 41 56 50 62 69 43 54 66 32 4 314 291 316 294 262 254 241 244 244
339 256 304 293 117 78 344 96 96 103 309 259 179 276 87 105 101 138 151 182 41 309 100 73 57 60 85 97 80 61 71 60 63 23 6 320 296 307 295 283 270 242 228 231
287 332 347 331 349 56 1 139 137 108 70 268 155 210 131 106 103 93 78 322 286 71 102 79 36 321 226 121 80 47 102 45 25 18 345 313 323 298 287 290 279 251 231 216
114 240 191 216 247 33 288 299 138 144 117 289 119 140 153 164 177 183 192 192 86 9 83 60 1 323 14 85 56 32 19 36 28 358 340 319 310 300 303 292 299 246 248 242
121 263 311 324 324 8 317 306 40 65 352 94 95 130 167 177 173 127 148 116 64 61 42 0 343 32 46 57 47 36 24 357 329 338 330 333 316 313 322 303 293 269 252 244
130 294 327 310 291 263 231 291 223 171 223 151 116 112 145 102 86 87 99 79 74 47 5 19 37 42 30 60 18 16 13 3 353 335 326 331 331 340 325 317 322 298 294 281
107 90 16 281 334 329 292 348 11 106 67 81 111 164 114 92 95 99 149 94 76 43 60 44 49 40 44 18 33 26 19 13 359 348 326 326 336 333 331 326 337 352 342 342
137 17 192 256 349 284 205 337 36 353 21 3 95 106 116 123 115 98 84 86 73 71 59 41 33 22 45 44 32 19 6 6 352 345 335 327 330 352 330 329 315 322 354 317
188 107 328 46 317 283 123 20 115 224 2 10 75 74 93 95 81 28 46 82 90 83 67 57 25 64 73 48 22 16 358 357 357 339 342 349 347 328 325 326 327 288 224 277
77 89 107 349 300 301 329 257 239 329 191 39 50 51 84 61 79 290 63 80 72 69 65 47 34 89 66 18 6 28 23 6 345 333 331 328 323 344 315 330 324 300 273 234
199 136 161 113 195 272 245 248 302 34 236 48 50 86 74 86 165 141 96 77 89 84 60 34 66 73 45 46 54 27 20 350 328 327 335 337 339 322 326 322 313 325 333 31
86 96 143 78 242 157 358 51 324 191 95 72 67 80 76 66 60 67 65 69 61 55 33 21 100 70 74 46 47 19 12 328 335 333 341 332 329 322 327 331 339 345 10 38
58 166 182 200 207 110 71 116 95 95 106 85 96 99 85 80 71 69 64 74 66 52 33 75 77 60 49 46 64 12 310 328 321 331 327 325 342 332 334 339 332 355 3 345
125 158 13 71 171 126 128 132 112 64 102 91 76 100 90 83 71 64 63 72 65 44 41 86 78 41 358 87 62 330 310 309 334 328 322 320 340 350 340 347 314 348 23 339
260 47 261 127 80 169 145 141 146 128 116 87 70 77 74 74 58 67 72 78 63 34 41 114 130 178 318 266 224 273 280 310 336 323 315 330 326 335 333 347 331 327 72 19
342 5 55 31 347 99 83 121 109 79 84 75 78 69 64 72 58 51 77 109 98 304 294 139 182 240 258 314 336 325 333 347 352 330 315 304 323 326 333 342 347 13 92 75